Weather in Kapal

Kazakhstan     45°14′09″N   78°52′10″E
temp.,
°C
wind,
m/s
gust,
m/s
humid.,
%
clouds,
%
prec.,
mm/h
press.,
hPa
HPBL,
m
24 june, thu
thu2400:00+15ssw5113579 0.0 1012169
03:00+19ssw7142682 0.0 1010389
06:00+20ssw81326100 0.0 1009560
09:00+24sw101123100 0.0 10081481
12:00+26wsw9112294 0.0 10072296
15:00+25wnw7927100 0.2 10062011
18:00+17nne5572100 0.2 1009595
21:00+13wnw2292100 1.1 1011109
25 june, fri
fri2500:00+11wnw3290100 5.8 1012184
03:00+9s118611 3.4 101410
06:00+10se11765 3.4 101414
09:00+14n225569 0.0 1014759
12:00+19nnw43335 0.0 10121923
15:00+22nnw4525100 0.0 10102345
18:00+20n5428100 0.0 10101070
21:00+14ne2344100 0.0 101232
26 june, sat
sat2600:00+11se22540 0.0 101212
03:00+10sse22540 0.0 101211
06:00+12s114912 0.0 101111
09:00+18nw343199 0.0 10121080
12:00+21nw4623100 0.0 10112463
15:00+23nw6622100 0.0 10103073
18:00+20nnw5431100 0.0 10122537
21:00+15sse68584 0.3 1015190
27 june, sun
sun2700:00+12sse33540 0.3 101619
03:00+12sse33510 0.0 101618
06:00+13se22450 0.0 101617
09:00+20nne32250 0.0 10161302
12:00+24nne43170 0.0 10141695
15:00+27nne53135 0.0 10122031
18:00+26n54145 0.0 10111481
21:00+16ene33325 0.0 101415
28 june, mon
mon2800:00+14ese3335100 0.0 101419
03:00+15se43224 0.0 101230
06:00+17se32171 0.0 101116
09:00+26n21120 0.0 1010819
12:00+30nw3380 0.0 10082230
15:00+32nw4490 0.0 10072923
18:00+31nw54110 0.0 10062411
21:00+21se22260 0.0 100813